Location: *
(33.8649°S, 62.1526°E)
Time: 10:09:06
(UTC+00:00)

Cosmos 44 Rocket - Pass Details

Date: 05 December 2021
Orbit: 648 x 741 km, 65.1° (Epoch: 23 January)

Event Time Altitude Azimuth Distance (km) Brightness Sun altitude
Exits shadow 16:41:09 20° 103° (ESE) 1,505 4.7 -19.1°
Drops below altitude 10° 16:43:15 10° 125° (SE) 2,080 5.7 -19.4°
Sets 16:45:54 0° 137° (SE) 3,008 6.6 -19.8°
